| time (UTC) | temp F | wind direction | speed MPH | gust MPH | rain 1hr in | rain 24hr in | rain mn in | humidity % | barometer mb |
| 20260505055801 | 57 | 182 | 1.0 | 3.0 | 0.00 | 0.00 | 0.00 | 34 | 1014.9 |
| 20260505055259 | 57 | 182 | 1.0 | 3.0 | 0.00 | 0.00 | 0.00 | 35 | 1015.0 |
| 20260505054759 | 57 | 175 | 1.0 | 3.0 | 0.00 | 0.00 | 0.00 | 36 | 1015.1 |
| 20260505054259 | 57 | 150 | 1.0 | 3.0 | 0.00 | 0.00 | 0.00 | 37 | 1015.1 |
| 20260505053257 | 57 | 135 | 1.0 | 4.0 | 0.00 | 0.00 | 0.00 | 37 | 1015.1 |
| 20260505052257 | 57 | 122 | 0.0 | 2.0 | 0.00 | 0.00 | 0.00 | 40 | 1015.1 |
| 20260505050258 | 58 | 128 | 0.0 | 3.0 | 0.00 | 0.00 | 0.00 | 41 | 1015.4 |
| 20260505041747 | 59 | 129 | 1.0 | 4.0 | 0.00 | 0.00 | 0.00 | 42 | 1015.4 |
| 20260505041245 | 59 | 129 | 1.0 | 6.0 | 0.00 | 0.00 | 0.00 | 41 | 1015.2 |
| 20260505040745 | 59 | 130 | 1.0 | 6.0 | 0.00 | 0.00 | 0.00 | 40 | 1015.1 |
| 20260505040244 | 59 | 176 | 1.0 | 4.0 | 0.00 | 0.00 | 0.00 | 40 | 1015.1 |
| 20260505035744 | 59 | 176 | 2.0 | 5.0 | 0.00 | 0.00 | 0.00 | 40 | 1015.0 |
| 20260505035245 | 59 | 128 | 1.0 | 5.0 | 0.00 | 0.00 | 0.00 | 40 | 1014.7 |
| 20260505034744 | 59 | 144 | 2.0 | 4.0 | 0.00 | 0.00 | 0.00 | 41 | 1014.8 |
| 20260505034245 | 59 | 129 | 2.0 | 5.0 | 0.00 | 0.00 | 0.00 | 41 | 1015.1 |
| 20260505033745 | 59 | 190 | 3.0 | 5.0 | 0.00 | 0.00 | 0.00 | 41 | 1014.9 |
| 20260505033245 | 59 | 145 | 3.0 | 4.0 | 0.00 | 0.00 | 0.00 | 41 | 1014.8 |
| 20260505032744 | 59 | 183 | 2.0 | 5.0 | 0.00 | 0.00 | 0.00 | 42 | 1014.8 |
| 20260505032245 | 59 | 124 | 1.0 | 5.0 | 0.00 | 0.00 | 0.00 | 41 | 1014.8 |
| 20260505031745 | 59 | 164 | 1.0 | 3.0 | 0.00 | 0.00 | 0.00 | 42 | 1014.6 |
| 20260505031245 | 59 | 146 | 1.0 | 3.0 | 0.00 | 0.00 | 0.00 | 41 | 1014.4 |
| 20260505030744 | 60 | 153 | 2.0 | 3.0 | 0.00 | 0.00 | 0.00 | 42 | 1014.4 |
| 20260505030244 | 60 | 126 | 2.0 | 5.0 | 0.00 | 0.00 | 0.00 | 42 | 1014.3 |
| 20260505025745 | 60 | 117 | 2.0 | 5.0 | 0.00 | 0.00 | 0.00 | 41 | 1014.3 |
| 20260505024745 | 60 | 143 | 2.0 | 5.0 | 0.00 | 0.00 | 0.00 | 40 | 1014.2 |
| 20260505024244 | 60 | 145 | 2.0 | 5.0 | 0.00 | 0.00 | 0.00 | 40 | 1014.2 |
| 20260505023745 | 60 | 143 | 2.0 | 7.0 | 0.00 | 0.00 | 0.00 | 40 | 1014.1 |
| 20260505023244 | 61 | 101 | 4.0 | 10.0 | 0.00 | 0.00 | 0.00 | 37 | 1014.2 |
| 20260505022744 | 61 | 138 | 4.0 | 10.0 | 0.00 | 0.00 | 0.00 | 38 | 1014.1 |
| 20260505022244 | 61 | 144 | 3.0 | 8.0 | 0.00 | 0.00 | 0.00 | 38 | 1014.0 |
| 20260505021744 | 61 | 150 | 4.0 | 8.0 | 0.00 | 0.00 | 0.00 | 37 | 1013.9 |
| 20260505021245 | 61 | 146 | 4.0 | 10.0 | 0.00 | 0.00 | 0.00 | 37 | 1014.0 |
| 20260505020245 | 62 | 142 | 3.0 | 8.0 | 0.00 | 0.00 | 0.00 | 36 | 1013.9 |
| 20260504205207 | 69 | 81 | 5.0 | 13.0 | 0.00 | 0.00 | 0.00 | 33 | 1014.7 |
| 20260504204204 | 68 | 155 | 4.0 | 11.0 | 0.00 | 0.00 | 0.00 | 34 | 1014.8 |
| 20260504203202 | 69 | 163 | 5.0 | 10.0 | 0.00 | 0.00 | 0.00 | 34 | 1014.8 |
| 20260504202703 | 69 | 184 | 5.0 | 11.0 | 0.00 | 0.00 | 0.00 | 35 | 1014.9 |
| 20260504202202 | 68 | 123 | 5.0 | 11.0 | 0.00 | 0.00 | 0.00 | 34 | 1014.9 |
| 20260504201701 | 68 | 144 | 4.0 | 10.0 | 0.00 | 0.00 | 0.00 | 36 | 1014.8 |
| 20260504201158 | 67 | 140 | 4.0 | 12.0 | 0.00 | 0.00 | 0.00 | 35 | 1014.7 |
| 20260504200658 | 67 | 163 | 5.0 | 12.0 | 0.00 | 0.00 | 0.00 | 34 | 1015.0 |
| 20260504200201 | 67 | 112 | 4.0 | 10.0 | 0.00 | 0.00 | 0.00 | 36 | 1015.0 |
| 20260504195658 | 67 | 160 | 4.0 | 9.0 | 0.00 | 0.00 | 0.00 | 37 | 1015.2 |
| 20260504195158 | 67 | 137 | 4.0 | 12.0 | 0.00 | 0.00 | 0.00 | 36 | 1015.1 |
| 20260504194658 | 67 | 144 | 4.0 | 12.0 | 0.00 | 0.00 | 0.00 | 36 | 1014.9 |
| 20260504193159 | 67 | 148 | 4.0 | 12.0 | 0.00 | 0.00 | 0.00 | 36 | 1014.9 |
| 20260504192657 | 68 | 153 | 4.0 | 11.0 | 0.00 | 0.00 | 0.00 | 37 | 1014.9 |
| 20260504192156 | 68 | 167 | 4.0 | 11.0 | 0.00 | 0.00 | 0.00 | 34 | 1015.0 |
| 20260504191657 | 68 | 149 | 4.0 | 9.0 | 0.00 | 0.00 | 0.00 | 36 | 1015.1 |
| 20260504191156 | 67 | 158 | 4.0 | 9.0 | 0.00 | 0.00 | 0.00 | 38 | 1015.1 |
| 20260504190656 | 67 | 121 | 3.0 | 9.0 | 0.00 | 0.00 | 0.00 | 39 | 1015.1 |
| 20260504185657 | 66 | 163 | 4.0 | 9.0 | 0.00 | 0.00 | 0.00 | 38 | 1015.2 |
| 20260504185156 | 66 | 157 | 5.0 | 13.0 | 0.00 | 0.00 | 0.00 | 41 | 1015.2 |
| 20260504184657 | 66 | 126 | 5.0 | 13.0 | 0.00 | 0.00 | 0.00 | 41 | 1015.1 |
| 20260504183152 | 66 | 141 | 4.0 | 7.0 | 0.00 | 0.00 | 0.00 | 42 | 1015.5 |
| 20260504182652 | 66 | 121 | 3.0 | 7.0 | 0.00 | 0.00 | 0.00 | 41 | 1015.6 |
| 20260504182152 | 66 | 121 | 3.0 | 7.0 | 0.00 | 0.00 | 0.00 | 41 | 1015.5 |
| 20260504181653 | 66 | 141 | 3.0 | 7.0 | 0.00 | 0.00 | 0.00 | 40 | 1015.7 |
| 20260504181151 | 66 | 132 | 4.0 | 7.0 | 0.00 | 0.00 | 0.00 | 41 | 1015.8 |
| 20260504180650 | 67 | 163 | 3.0 | 6.0 | 0.00 | 0.00 | 0.00 | 40 | 1015.7 |
| 20260504175648 | 66 | 140 | 3.0 | 6.0 | 0.00 | 0.00 | 0.00 | 40 | 1015.8 |
| 20260504175148 | 67 | 137 | 3.0 | 6.0 | 0.00 | 0.00 | 0.00 | 40 | 1015.9 |
| 20260504174148 | 67 | 105 | 4.0 | 8.0 | 0.00 | 0.00 | 0.00 | 39 | 1015.8 |
| 20260504173148 | 67 | 106 | 3.0 | 8.0 | 0.00 | 0.00 | 0.00 | 39 | 1015.8 |
| 20260504172648 | 67 | 139 | 4.0 | 8.0 | 0.00 | 0.00 | 0.00 | 39 | 1015.7 |
| 20260504172148 | 66 | 165 | 4.0 | 10.0 | 0.00 | 0.00 | 0.00 | 40 | 1015.7 |
| 20260504171644 | 66 | 138 | 4.0 | 10.0 | 0.00 | 0.00 | 0.00 | 40 | 1015.6 |
| 20260504171144 | 65 | 107 | 4.0 | 9.0 | 0.00 | 0.00 | 0.00 | 40 | 1015.4 |
| 20260504170644 | 66 | 111 | 4.0 | 11.0 | 0.00 | 0.00 | 0.00 | 39 | 1015.6 |
| 20260504170142 | 66 | 109 | 5.0 | 11.0 | 0.00 | 0.00 | 0.00 | 39 | 1015.7 |
| 20260504151118 | 62 | 170 | 2.0 | 7.0 | 0.00 | 0.00 | 0.00 | 43 | 1015.7 |
| 20260504150619 | 62 | 134 | 2.0 | 7.0 | 0.00 | 0.00 | 0.00 | 44 | 1015.4 |
| 20260504150116 | 61 | 153 | 3.0 | 7.0 | 0.00 | 0.00 | 0.00 | 44 | 1015.1 |
| 20260504141112 | 60 | 145 | 2.0 | 7.0 | 0.00 | 0.00 | 0.00 | 46 | 1015.6 |
| 20260504140610 | 60 | 145 | 3.0 | 7.0 | 0.00 | 0.00 | 0.00 | 45 | 1015.4 |
| 20260504140108 | 59 | 126 | 2.0 | 7.0 | 0.00 | 0.00 | 0.00 | 45 | 1015.4 |
| 20260504130604 | 58 | 178 | 0.0 | 2.0 | 0.00 | 0.00 | 0.00 | 45 | 1015.0 |
| 20260504110544 | 60 | 143 | 2.0 | 6.0 | 0.00 | 0.00 | 0.00 | 46 | 1015.4 |
| 20260504100538 | 60 | 192 | 1.0 | 2.0 | 0.00 | 0.00 | 0.00 | 43 | 1015.5 |